Погода в Ыйджонбу

Южная Корея     37°44′19″N   127°02′50″E
темп.,
°C
ветер,
м/с
пор.,
м/с
влажн.,
%
обл.,
%
осадки,
мм/ч
давл.,
гПа
погр.,
м
26 июля, пн
пн2600:00+29всв11521 0.0 100640
03:00+28в116049 0.0 100539
06:00+27всв126613 0.0 100587
09:00+31в12525 0.0 1005648
12:00+35юв34355 0.0 10052218
15:00+36ююв43271 0.0 10032427
18:00+34з333414 0.0 10021453
21:00+30сз12491 0.0 1004237
27 июля, вт
вт2700:00+29св11543 0.0 100444
03:00+28св115882 0.0 100415
06:00+27в1164100 0.0 100434
09:00+31ююв005193 0.0 1004776
12:00+35с014299 0.0 10031629
15:00+36зсз223696 0.0 10002683
18:00+33сз3446100 0.0 1000975
21:00+30з235954 0.1 1002402
28 июля, ср
ср2800:00+29зюз116281 0.0 1002243
03:00+28всв016817 0.0 100283
06:00+27ю11742 0.0 1002104
09:00+31ююв10600 0.0 1002744
12:00+35з22437 0.0 10012073
15:00+37сз443661 0.0 9992303
18:00+33зсз344996 0.0 999857
21:00+29з126512 0.4 1001267
29 июля, чт
чт2900:00+28ююз12730 0.3 1001112
03:00+26ю128072 0.6 1001116
06:00+26юв11816 0.0 1001115
09:00+30ю1161100 0.0 1001614
12:00+34юз214678 0.0 9991533
15:00+34з434397 0.0 9981656
18:00+32зюз435152 0.0 9981013
21:00+29з1260100 0.0 999345
30 июля, пт
пт3000:00+28юз1163100 0.0 999168
03:00+27ююз1167100 0.0 99865
06:00+26в116977 0.0 99865
09:00+28ю116494 0.0 998348
12:00+31ю1354100 0.0 997991
15:00+32юв354588 0.0 9951059
18:00+33ююв463977 0.0 9941746
21:00+29ююз1163100 0.2 99574